Logan, UT

11:28 AM MST on December 15, 2019 (GMT -0700)
Logan-Cache

Weather History for KLGU - October, 2019

Change the Weather History Date:

Tuesday, October 15, 2019

  Actual Average Record
Temperature  
Mean Temperature 46 °F -  
Max Temperature 68 °F 62 °F 82 °F (1958)
Min Temperature 27 °F 32 °F 19 °F (1966)
Degree Days  
Heating Degree Days 18    
Moisture  
Dew Point 25 °F    
Average Humidity 52    
Maximum Humidity 82    
Minimum Humidity 17    
Precipitation  
Precipitation 0.00 in - - ()
Sea Level Pressure  
Sea Level Pressure 30.20 in    
Wind  
Wind Speed 1 mph ()    
Max Wind Speed 5 mph    
Max Gust Speed -    
Visibility 10.0 miles    
Events      
Averages and records for this station are not official NWS values.
T = Trace of Precipitation, MM = Missing Value Source: Averaged Metar Reports

Daily Weather History Graph

Daily Weather History Graph

Search for Another Location

Airport or City:

Astronomy

Oct. 15, 2019 Rise Set
Actual Time 7:39 AM MDT 6:46 PM MDT
Civil Twilight 7:11 AM MDT 7:14 PM MDT
Nautical Twilight 6:39 AM MDT 7:46 PM MDT
Astronomical Twilight 6:06 AM MDT 8:18 PM MDT
Moon 8:06 PM MDT 9:14 AM MDT
Length of Visible Light 12h 02m
Length of Day
11h 06m
Full, 97% of the Moon is Illuminated
Oct 15
Full
Oct 21
Last Quarter
Oct 27
New
Nov 4
First Quarter
Nov 12
Full

Hourly Weather History & Observations

Time (MDT) Temp. Windchill Dew Point Humidity Pressure Visibility Wind Dir Wind Speed Gust Speed Precip Events Conditions
12:51 AM 39.0 °F - 24.1 °F 55% 30.12 in 10.0 mi Calm Calm - N/A   Clear
1:51 AM 32.0 °F 27.5 °F 23.0 °F 69% 30.13 in 10.0 mi NE 4.6 mph - N/A   Clear
2:51 AM 33.1 °F - 24.1 °F 70% 30.16 in 10.0 mi Calm Calm - N/A   Clear
3:51 AM 34.0 °F - 24.1 °F 67% 30.16 in 10.0 mi Calm Calm - N/A   Clear
4:51 AM 28.9 °F - 24.1 °F 82% 30.18 in 10.0 mi Calm Calm - N/A   Clear
5:51 AM 30.0 °F - 23.0 °F 75% 30.17 in 10.0 mi Calm Calm - N/A   Clear
6:51 AM 27.0 °F - 21.9 °F 81% 30.19 in - Calm Calm - N/A   Clear
7:51 AM 27.0 °F - 21.0 °F 78% 30.25 in 10.0 mi Calm Calm - N/A   Clear
8:51 AM 30.9 °F 26.2 °F 26.1 °F 82% 30.28 in 10.0 mi West 4.6 mph - N/A   Clear
9:51 AM 39.0 °F - 28.0 °F 65% 30.30 in 10.0 mi Calm Calm - N/A   Clear
10:51 AM 46.0 °F - 26.1 °F 46% 30.27 in 10.0 mi Calm Calm - N/A   Clear
11:51 AM 52.0 °F - 26.1 °F 37% 30.25 in 10.0 mi Calm Calm - N/A   Clear
12:51 PM 55.0 °F - 26.1 °F 33% 30.22 in 10.0 mi Calm Calm - N/A   Clear
1:51 PM 62.1 °F - 24.1 °F 23% 30.21 in 10.0 mi NNW 4.6 mph - N/A   Clear
2:51 PM 66.0 °F - 19.9 °F 17% 30.18 in 10.0 mi NE 4.6 mph - N/A   Clear
3:51 PM 66.0 °F - 21.0 °F 18% 30.17 in 10.0 mi Variable 4.6 mph - N/A   Clear
4:51 PM 66.9 °F - 21.0 °F 17% 30.17 in 10.0 mi North 4.6 mph - N/A   Clear
5:51 PM 66.0 °F - 23.0 °F 20% 30.16 in 10.0 mi East 3.5 mph - N/A   Clear
6:51 PM 59.0 °F - 26.1 °F 28% 30.19 in 9.0 mi NNE 4.6 mph - N/A   Clear
7:51 PM 50.0 °F - 28.0 °F 43% 30.23 in 10.0 mi ESE 3.5 mph - N/A   Clear
8:51 PM 46.0 °F 44.8 °F 28.0 °F 50% 30.24 in 10.0 mi SE 3.5 mph - N/A   Clear
9:51 PM 43.0 °F - 30.9 °F 62% 30.23 in 10.0 mi Calm Calm - N/A   Clear
10:51 PM 44.1 °F - 28.9 °F 55% 30.20 in 10.0 mi Calm Calm - N/A   Clear
11:51 PM 37.9 °F 35.5 °F 28.9 °F 70% 30.19 in 10.0 mi NNE 3.5 mph - N/A   Clear